TimeMDT,TemperatureF,Dew PointF,Humidity,Sea Level PressureIn,VisibilityMPH,Wind Direction,Wind SpeedMPH,Gust SpeedMPH,PrecipitationIn,Events,Conditions,WindDirDegrees,DateUTC
12:53 AM,45.0,28.9,53,29.96,10.0,SSW,15.0,-,N/A,,Clear,210,2013-03-16 06:53:00
1:53 AM,44.1,28.9,55,29.95,10.0,SSW,15.0,-,N/A,,Clear,200,2013-03-16 07:53:00
2:53 AM,44.1,27.0,51,29.95,10.0,SSW,15.0,-,N/A,,Clear,210,2013-03-16 08:53:00
3:53 AM,43.0,26.1,51,29.95,10.0,SW,12.7,-,N/A,,Clear,220,2013-03-16 09:53:00
4:53 AM,44.1,27.0,51,29.95,10.0,SW,15.0,-,N/A,,Clear,230,2013-03-16 10:53:00
5:53 AM,42.1,27.0,55,29.96,10.0,SSW,13.8,-,N/A,,Clear,210,2013-03-16 11:53:00
6:53 AM,41.0,27.0,57,29.97,10.0,SSW,12.7,-,N/A,,Clear,210,2013-03-16 12:53:00
7:53 AM,37.9,26.1,62,30.00,10.0,SSW,12.7,-,N/A,,Clear,210,2013-03-16 13:53:00
8:53 AM,41.0,28.0,60,30.00,10.0,SSW,12.7,-,N/A,,Clear,200,2013-03-16 14:53:00
9:53 AM,48.9,28.0,44,29.99,10.0,SW,13.8,-,N/A,,Clear,230,2013-03-16 15:53:00
10:53 AM,53.1,28.9,40,29.98,10.0,WSW,16.1,-,N/A,,Clear,250,2013-03-16 16:53:00
11:53 AM,55.0,28.9,37,29.98,10.0,West,10.4,20.7,N/A,,Clear,270,2013-03-16 17:53:00
12:53 PM,57.0,28.0,33,29.96,10.0,WSW,10.4,19.6,N/A,,Clear,250,2013-03-16 18:53:00
1:53 PM,57.9,27.0,31,29.93,10.0,West,10.4,-,N/A,,Clear,260,2013-03-16 19:53:00
2:53 PM,59.0,27.0,29,29.88,10.0,West,10.4,17.3,N/A,,Clear,270,2013-03-16 20:53:00
3:53 PM,59.0,26.1,28,29.85,10.0,WSW,9.2,-,N/A,,Clear,250,2013-03-16 21:53:00
4:53 PM,60.1,27.0,28,29.81,10.0,NW,9.2,-,N/A,,Partly Cloudy,320,2013-03-16 22:53:00
5:53 PM,57.0,28.0,33,29.79,10.0,NW,9.2,-,N/A,,Clear,310,2013-03-16 23:53:00
6:53 PM,55.0,28.9,37,29.78,10.0,NNW,8.1,-,N/A,,Clear,330,2013-03-17 00:53:00
7:53 PM,52.0,30.0,43,29.79,10.0,WSW,5.8,-,N/A,,Overcast,240,2013-03-17 01:53:00
8:53 PM,50.0,30.9,48,29.77,10.0,SW,6.9,-,N/A,,Mostly Cloudy,220,2013-03-17 02:53:00
9:53 PM,48.0,30.0,50,29.75,10.0,South,5.8,-,N/A,,Mostly Cloudy,190,2013-03-17 03:53:00
10:53 PM,48.0,33.1,56,29.79,10.0,WSW,25.3,35.7,0.00,Rain,Light Rain,250,2013-03-17 04:53:00
11:53 PM,43.0,35.1,74,29.78,10.0,SSW,11.5,-,0.00,,Mostly Cloudy,200,2013-03-17 05:53:00